When you browse on this site, cookies collect data to enhance your experience and personalize the content and advertising you see.
Visit our Privacy Policy to learn more. By continuing to use the site, you agree to this use of cookies and data.
  • en France
  • Liste des pays
  • À 7 jours
  • Température de l'eau
  • Carte météo
  • Widgets météo
  • user-avatar
    Se connecter

    Météo par heure à Quebec

    Ce jour, 1 Juin, Lundi

    Heure Température Précipitation Vent Pression Humidité
    00:00 -6°C° 0 mm 2 m/s 696 mmHg 93%
    01:00 -6°C° 0 mm 2 m/s 696 mmHg 95%
    02:00 -4°C° 0 mm 1 m/s 696 mmHg 95%
    03:00 -4°C° 0 mm 1 m/s 696 mmHg 95%
    04:00 -4°C° 0 mm 1 m/s 697 mmHg 95%
    05:00 -3°C° 0 mm 1 m/s 697 mmHg 85%
    06:00 -3°C° 0 mm 2 m/s 697 mmHg 75%
    07:00 -2°C° 0 mm 2 m/s 698 mmHg 65%
    08:00 -1°C° 0 mm 2 m/s 698 mmHg 62%
    09:00 +1°C° 0 mm 2 m/s 698 mmHg 59%
    10:00 +2°C° 0 mm 2 m/s 698 mmHg 55%
    11:00 +2°C° 0 mm 2 m/s 697 mmHg 53%
    12:00 +2°C° 0 mm 3 m/s 697 mmHg 50%
    13:00 +3°C° 0 mm 3 m/s 697 mmHg 47%
    14:00 +3°C° 0 mm 3 m/s 697 mmHg 46%
    15:00 +5°C° 0 mm 2 m/s 697 mmHg 45%
    16:00 +5°C° 0 mm 2 m/s 697 mmHg 45%
    17:00 +4°C° 0 mm 2 m/s 697 mmHg 49%
    18:00 +3°C° 0 mm 2 m/s 697 mmHg 53%
    19:00 +4°C° 0 mm 1 m/s 697 mmHg 57%
    20:00 +2°C° 0 mm 1 m/s 697 mmHg 64%
    21:00 +1°C° 0 mm 1 m/s 697 mmHg 71%
    22:00 -1°C° 0 mm 1 m/s 697 mmHg 78%
    23:00 -1°C° 0 mm 1 m/s 696 mmHg 80%

    Demain, 2 Juin, Mardi

    Heure Température Précipitation Vent Pression Humidité
    00:00 -1°C° 0 mm 1 m/s 696 mmHg 82%
    01:00 -2°C° 0 mm 1 m/s 696 mmHg 84%
    02:00 -1°C° 0 mm 1 m/s 696 mmHg 83%
    03:00 -1°C° 0 mm 1 m/s 696 mmHg 81%
    04:00 -1°C° 0 mm 1 m/s 696 mmHg 80%
    05:00 -1°C° 0 mm 2 m/s 696 mmHg 71%
    06:00 +2°C° 0 mm 2 m/s 696 mmHg 62%
    07:00 +4°C° 0 mm 2 m/s 696 mmHg 52%
    08:00 +6°C° 0 mm 2 m/s 696 mmHg 48%
    09:00 +7°C° 0 mm 2 m/s 696 mmHg 44%
    10:00 +8°C° 0 mm 2 m/s 696 mmHg 39%
    11:00 +9°C° 0 mm 2 m/s 695 mmHg 38%
    12:00 +9°C° 0 mm 2 m/s 695 mmHg 38%
    13:00 +10°C° 0 mm 2 m/s 695 mmHg 37%
    14:00 +10°C° 0 mm 2 m/s 694 mmHg 36%
    15:00 +11°C° 0 mm 1 m/s 694 mmHg 35%
    16:00 +12°C° 0 mm 1 m/s 693 mmHg 34%
    17:00 +11°C° 0 mm 1 m/s 693 mmHg 39%
    18:00 +9°C° 0 mm 2 m/s 693 mmHg 44%
    19:00 +8°C° 0 mm 2 m/s 693 mmHg 49%
    20:00 +5°C° 0 mm 3 m/s 693 mmHg 53%
    21:00 +3°C° 0 mm 3 m/s 692 mmHg 57%
    22:00 +2°C° 0 mm 3 m/s 692 mmHg 61%
    23:00 +1°C° 0 mm 3 m/s 692 mmHg 67%

    Après-demain, 3 Juin, Mercredi

    Heure Température Précipitation Vent Pression Humidité
    00:00 0°C° 0 mm 3 m/s 692 mmHg 73%
    01:00 0°C° 0 mm 3 m/s 691 mmHg 78%
    02:00 -1°C° 0 mm 3 m/s 691 mmHg 81%
    03:00 -1°C° 0 mm 2 m/s 691 mmHg 83%
    04:00 -2°C° 0 mm 2 m/s 691 mmHg 86%
    05:00 0°C° 0 mm 3 m/s 691 mmHg 76%
    06:00 +2°C° 0 mm 3 m/s 691 mmHg 67%
    07:00 +4°C° 0 mm 4 m/s 691 mmHg 57%
    08:00 +5°C° 0 mm 5 m/s 690 mmHg 55%
    09:00 +6°C° 0 mm 5 m/s 690 mmHg 53%
    10:00 +7°C° 0 mm 5 m/s 689 mmHg 51%
    11:00 +7°C° 0 mm 6 m/s 688 mmHg 51%
    12:00 +7°C° 0 mm 6 m/s 688 mmHg 52%
    13:00 +7°C° 0 mm 6 m/s 687 mmHg 52%
    14:00 +7°C° 0 mm 6 m/s 686 mmHg 57%
    15:00 +5°C° 0 mm 6 m/s 686 mmHg 61%
    16:00 +5°C° 0 mm 6 m/s 685 mmHg 65%
    17:00 +4°C° 0 mm 6 m/s 685 mmHg 71%
    18:00 +3°C° 0 mm 6 m/s 685 mmHg 78%
    19:00 +2°C° 0 mm 6 m/s 684 mmHg 85%
    20:00 +2°C° 0.4 mm 6 m/s 683 mmHg 87%
    21:00 +2°C° 0.4 mm 7 m/s 683 mmHg 90%
    22:00 0°C° 0.4 mm 7 m/s 682 mmHg 93%
    23:00 0°C° 0.7 mm 7 m/s 682 mmHg 93%

    4 Juin, Jeudi

    Heure Température Précipitation Vent Pression Humidité
    00:00 0°C° 0.7 mm 7 m/s 682 mmHg 94%
    01:00 0°C° 0.7 mm 7 m/s 681 mmHg 94%
    02:00 0°C° 0.9 mm 7 m/s 681 mmHg 95%
    03:00 0°C° 0.9 mm 7 m/s 681 mmHg 95%
    04:00 0°C° 0.9 mm 8 m/s 681 mmHg 95%
    05:00 0°C° 1.1 mm 7 m/s 681 mmHg 95%
    06:00 0°C° 1.1 mm 7 m/s 681 mmHg 95%
    07:00 0°C° 1.1 mm 7 m/s 681 mmHg 95%
    08:00 0°C° 0.7 mm 7 m/s 681 mmHg 95%
    09:00 0°C° 0.7 mm 7 m/s 682 mmHg 95%
    10:00 0°C° 0.7 mm 7 m/s 682 mmHg 95%
    11:00 0°C° 0.4 mm 7 m/s 683 mmHg 95%
    12:00 0°C° 0.4 mm 7 m/s 683 mmHg 95%
    13:00 0°C° 0.4 mm 7 m/s 683 mmHg 95%
    14:00 -1°C° 0.6 mm 7 m/s 684 mmHg 95%
    15:00 -1°C° 0.6 mm 7 m/s 684 mmHg 95%
    16:00 -2°C° 0.6 mm 7 m/s 685 mmHg 95%
    17:00 -2°C° 0.2 mm 7 m/s 685 mmHg 95%
    18:00 -1°C° 0.2 mm 7 m/s 686 mmHg 95%
    19:00 -1°C° 0.2 mm 6 m/s 686 mmHg 95%
    20:00 -1°C° 0.1 mm 6 m/s 686 mmHg 95%
    21:00 0°C° 0.1 mm 5 m/s 686 mmHg 95%
    22:00 0°C° 0.1 mm 5 m/s 686 mmHg 95%
    23:00 0°C° 0.1 mm 5 m/s 686 mmHg 95%

    5 Juin, Vendredi

    Heure Température Précipitation Vent Pression Humidité
    00:00 0°C° 0.1 mm 5 m/s 687 mmHg 96%
    01:00 0°C° 0.1 mm 5 m/s 687 mmHg 96%
    02:00 0°C° 0.1 mm 4 m/s 687 mmHg 96%
    03:00 +1°C° 0.1 mm 3 m/s 687 mmHg 96%
    04:00 +1°C° 0.1 mm 3 m/s 687 mmHg 96%
    05:00 +1°C° 0 mm 3 m/s 687 mmHg 94%
    06:00 +3°C° 0 mm 2 m/s 688 mmHg 92%
    07:00 +3°C° 0 mm 2 m/s 688 mmHg 89%
    08:00 +4°C° 0 mm 2 m/s 688 mmHg 84%
    09:00 +5°C° 0 mm 2 m/s 688 mmHg 79%
    10:00 +6°C° 0 mm 2 m/s 689 mmHg 74%
    11:00 +6°C° 0.1 mm 2 m/s 689 mmHg 73%
    12:00 +7°C° 0.1 mm 3 m/s 689 mmHg 72%
    13:00 +7°C° 0.1 mm 3 m/s 689 mmHg 71%
    14:00 +7°C° 0.1 mm 3 m/s 689 mmHg 70%
    15:00 +6°C° 0.1 mm 4 m/s 689 mmHg 68%
    16:00 +7°C° 0.1 mm 4 m/s 689 mmHg 67%
    17:00 +6°C° 0.1 mm 4 m/s 689 mmHg 71%
    18:00 +7°C° 0.1 mm 3 m/s 690 mmHg 74%
    19:00 +5°C° 0.1 mm 3 m/s 690 mmHg 78%
    20:00 +4°C° 0 mm 3 m/s 690 mmHg 84%
    21:00 +3°C° 0 mm 2 m/s 690 mmHg 89%
    22:00 +2°C° 0 mm 2 m/s 690 mmHg 94%
    23:00 +2°C° 0.1 mm 2 m/s 690 mmHg 94%

    6 Juin, Samedi

    Heure Température Précipitation Vent Pression Humidité
    00:00 +2°C° 0.1 mm 2 m/s 691 mmHg 94%
    01:00 +3°C° 0.1 mm 2 m/s 691 mmHg 93%
    02:00 +3°C° 0.2 mm 2 m/s 691 mmHg 94%
    03:00 +2°C° 0.2 mm 2 m/s 691 mmHg 95%
    04:00 +2°C° 0.2 mm 2 m/s 692 mmHg 96%
    05:00 +2°C° 0 mm 3 m/s 692 mmHg 92%
    06:00 +2°C° 0 mm 3 m/s 693 mmHg 87%
    07:00 +3°C° 0 mm 4 m/s 693 mmHg 83%
    08:00 +4°C° 0 mm 4 m/s 694 mmHg 78%
    09:00 +4°C° 0 mm 4 m/s 694 mmHg 74%
    10:00 +5°C° 0 mm 4 m/s 694 mmHg 70%
    11:00 +6°C° 0 mm 5 m/s 694 mmHg 65%
    12:00 +7°C° 0 mm 5 m/s 695 mmHg 60%
    13:00 +7°C° 0 mm 5 m/s 695 mmHg 55%
    14:00 +7°C° 0.1 mm 5 m/s 695 mmHg 59%
    15:00 +6°C° 0.1 mm 5 m/s 695 mmHg 63%
    16:00 +6°C° 0.1 mm 5 m/s 696 mmHg 67%
    17:00 +6°C° 0 mm 5 m/s 696 mmHg 65%
    18:00 +5°C° 0 mm 4 m/s 696 mmHg 64%
    19:00 +5°C° 0 mm 4 m/s 697 mmHg 63%
    20:00 +4°C° 0 mm 3 m/s 697 mmHg 70%
    21:00 +2°C° 0 mm 3 m/s 697 mmHg 76%
    22:00 +2°C° 0 mm 2 m/s 697 mmHg 83%
    23:00 +1°C° 0 mm 2 m/s 697 mmHg 85%
    Voir plus